SCP
0 0 0 0 0 0 0 0 0 0 0 0 0 0 0 0 0 0 0 0 0 0 0 0 0 0 0 0 0 0 0 -0 0 0 0 0 0 0 0 0 1 1 0 0 0 0 0 0 0 0 0 0 0 1
0 0 0 0 0 0 0 0 0 0 0 0 0 0 0 0 0 0 0 0 0 0 0 0 -0 0 0 0 0 0 0 0 1 1 0 0 0 0 0 0 0 1 0 0 0 0 0 0 1 0 0 0 0 1
0 0 0 0 0 0 0 0 0 0 0 0 0 0 0 0 0 0 0 0 0 0 0 0 0 0 0 0 -0 -0 -0 0 0 0 0 0 0 0 0 0 0 0 0 0 0 0 0 1 1 1 0 0 0 1
0 0 0 0 0 0 0 0 0 0 0 0 0 0 0 0 0 0 0 0 0 0 0 0 0 0 0 0 0 -0 -0 -0 0 0 0 0 0 0 0 0 0 0 0 0 0 1 1 0 0 0 -0 0 0 0
0 0 0 0 0 0 0 0 0 0 0 0 0 0 0 0 0 0 0 0 0 0 0 0 0 0 0 0 0 0 0 0 0 0 0 0 0 0 0 0 0 0 0 0 1 1 2 0 0 0 0 0 0 0
0 0 0 0 0 0 0 0 0 0 0 0 0 0 0 0 0 0 0 0 0 0 0 0 0 0 0 0 0 0 0 0 0 0 0 0 -0 0 0 0 0 0 0 0 0 0 0 0 -0 0 0 0 0 0
0 0 0 0 0 0 0 0 0 0 0 0 0 0 0 0 0 0 0 0 0 0 0 0 0 0 0 0 0 0 0 0 0 0 0 0 0 0 0 0 0 0 0 0 0 0 0 0 0 0 0 0 0 0
0 0 0 0 0 0 0 0 0 0 0 0 0 0 0 0 0 0 0 0 0 0 0 0 0 0 -0 0 0 0 0 0 0 0 0 0 0 0 0 0 0 0 -0 -0 -0 -0 -0 0 0 0 0 0 0 0
0 0 0 0 0 0 0 0 0 0 0 0 0 0 0 0 0 0 0 0 0 0 0 0 0 0 0 -0 0 0 0 0 0 0 0 0 0 0 0 0 0 0 0 0 0 0 0 0 0 0 0 0 0 0
0 0 0 0 0 0 0 0 0 0 0 0 0 0 0 0 0 0 0 0 0 0 0 0 0 0 0 0 0 0 0 0 0 0 0 0 0 0 0 0 0 0 0 0 0 0 0 0 0 0 0 0 0 0
-0 -0 -0 0 0 0 0 0 0 0 0 0 0 0 0 0 0 0 0 0 0 0 0 0 0 0 0 0 0 0 0 0 0 0 0 0 0 0 0 0 0 0 0 0 0 0 0 0 0 0 0 0 0 0
-0 -0 0 0 0 0 0 -0 0 0 0 0 0 0 0 0 0 0 0 0 0 0 -0 0 0 0 0 0 0 0 0 0 0 0 0 0 0 0 -0 -0 0 0 0 0 0 0 0 0 0 0 0 0 0 0
0 0 0 -0 0 0 0 -0 -0 0 0 0 0 0 0 0 0 0 0 0 0 0 0 0 0 0 0 0 0 0 0 0 0 0 0 0 0 0 0 0 0 0 0 0 0 0 0 0 0 0 0 0 0 0
0 0 0 -0 -0 0 -0 0 0 0 0 0 0 0 0 0 0 0 0 0 0 0 -0 0 0 0 0 0 0 0 0 0 0 0 0 0 1 0 0 0 0 0 0 0 0 0 0 0 0 0 0 0 0 0
0 -0 -0 -0 0 0 0 0 0 0 0 0 0 0 0 0 0 -0 -0 0 0 0 0 0 0 0 0 0 0 0 0 0 0 0 0 0 0 0 0 0 0 0 0 0 0 0 0 0 0 0 0 0 0 0
0 0 0 -0 0 0 0 0 0 0 0 0 0 0 0 0 0 0 0 0 0 0 0 0 0 0 0 0 0 0 0 0 0 0 0 0 0 0 0 0 0 0 0 0 0 0 0 0 0 0 0 0 0 0
0 0 -0 0 0 0 0 0 0 0 0 0 0 0 0 0 0 0 0 0 0 0 0 0 0 0 0 0 0 -0 0 0 0 0 0 0 0 0 0 0 0 0 0 0 0 0 0 1 0 0 0 0 0 0
0 0 -0 0 0 0 0 0 0 0 0 0 0 0 0 0 0 0 0 0 0 0 0 0 0 0 0 0 0 0 0 -0 -0 0 0 0 0 0 0 0 0 0 0 0 0 0 0 0 0 0 0 0 0 0
0 0 0 0 0 0 0 0 0 0 0 0 0 0 0 0 0 0 0 0 0 0 0 0 0 0 0 0 0 0 0 0 0 0 0 0 0 0 0 0 0 0 0 0 0 0 0 0 0 0 0 0 0 0
0 0 0 0 0 0 0 0 0 0 0 -0 0 0 0 0 0 0 0 0 0 0 0 0 0 0 0 0 0 0 0 0 0 0 0 0 0 0 0 0 0 0 0 0 0 0 0 0 0 0 0 0 0 0
0 0 0 0 0 0 0 0 0 0 0 0 0 0 0 0 0 0 0 0 -0 0 0 0 0 0 0 0 0 0 0 0 0 0 0 0 0 0 0 0 0 0 0 0 0 0 0 0 0 0 0 0 0 0
0 0 0 0 0 0 0 0 0 0 0 0 0 0 0 0 0 0 0 0 0 0 0 0 0 0 0 0 0 0 0 0 0 0 0 0 0 0 0 0 0 0 0 0 0 0 0 0 0 0 0 0 0 0
0 0 0 0 0 0 0 0 0 0 0 0 0 0 0 0 -0 0 0 0 0 0 0 0 0 0 0 0 0 0 0 0 0 0 0 0 0 0 0 0 0 0 0 0 0 0 0 0 0 0 0 0 0 0
0 0 0 0 0 0 0 0 0 0 0 0 0 0 -0 -0 -0 -0 -0 -0 -0 -0 0 0 -0 -0 -0 -0 -0 -0 -0 0 0 0 0 0 0 0 0 0 0 0 0 0 0 0 0 0 0 0 0 0 0 0
0 0 0 0 0 0 0 0 0 0 0 0 0 -0 -0 -0 -0 -0 -0 -0 0 0 0 0 0 -0 0 0 -0 0 0 -0 -0 -0 -0 0 0 0 0 0 0 0 0 0 0 0 0 0 0 0 0 0 0 0
0 0 0 0 0 0 0 0 0 0 0 0 -0 -0 -0 -0 -0 0 0 0 0 -0 -0 -0 -0 0 0 0 0 0 0 0 0 0 -0 -0 -0 -0 0 0 0 0 0 0 0 0 0 0 0 0 0 0 0 0
0 0 0 0 0 0 0 0 0 -0 -0 -0 -0 0 0 0 0 0 0 0 0 0 0 0 0 -0 0 0 0 0 0 0 0 0 0 0 0 0 0 0 0 0 0 0 0 0 0 0 0 0 0 0 0 -0
0 0 0 0 0 0 0 0 0 0 0 0 0 0 0 0 0 0 0 0 0 0 0 0 0 0 0 0 0 0 0 0 0 0 0 0 0 0 0 0 0 0 0 0 0 0 0 0 0 0 -0 -0 0 -0
0 0 0 -0 -0 0 0 0 0 0 0 0 0 0 0 0 0 0 0 0 0 0 0 0 0 0 0 0 0 0 0 0 0 0 0 0 0 0 0 0 0 0 0 0 0 0 0 0 0 0 0 0 0 0
0 0 0 0 0 0 0 0 0 0 0 0 0 0 0 0 0 0 0 0 0 0 0 0 0 0 0 0 0 0 0 0 0 0 0 0 0 0 0 0 0 0 0 0 0 0 0 0 0 0 0 0 0 0
0 -0 -0 0 0 0 0 0 0 0 0 0 0 0 0 0 0 0 0 0 0 0 0 0 0 0 0 0 0 0 0 0 0 0 0 0 0 0 0 0 0 0 0 0 -0 0 -0 0 0 0 0 0 0 -0
0 0 0 0 0 0 0 0 0 0 0 0 0 0 0 0 0 -0 0 0 -0 -0 0 0 0 0 0 0 0 0 0 0 0 0 0 0 0 0 0 0 0 0 0 0 0 -0 -0 0 0 0 0 0 0 -0
-0 0 0 0 0 0 0 0 0 0 0 0 0 0 0 0 0 0 0 0 0 0 0 0 0 0 0 0 0 0 0 0 0 0 0 0 0 0 0 0 0 0 0 0 0 0 0 -0 -0 -0 0 -0 -0 -0
Wind_Speed_500mb
26 25 25 26 27 28 28 26 26 27 27 24 25 29 27 28 27 27 25 27 29 32 52 51 46 45 44 33 9 40 24 35 35 20 26 24 26 33 39 40 34 14 4 26 27 20 15 19 21 22 11 18 29 45
27 27 27 26 25 25 25 26 28 26 25 26 22 24 31 29 26 27 28 25 28 37 42 50 44 52 54 39 30 15 24 59 23 4 19 11 14 9 12 30 26 23 22 25 16 17 63 51 25 35 34 32 26 45
21 22 27 22 23 21 21 20 23 23 21 23 26 25 27 27 29 31 27 32 24 24 47 52 53 50 48 52 50 33 29 22 36 26 14 6 8 8 6 23 31 45 24 8 11 27 33 45 47 39 7 36 36 41
22 22 24 25 21 22 18 17 17 19 18 19 22 22 24 23 29 31 27 27 26 17 16 17 16 23 27 30 39 47 48 50 46 36 22 10 4 9 3 10 12 14 27 34 21 32 49 44 45 37 38 39 40 36
22 20 19 23 24 22 20 18 18 17 17 18 19 19 20 23 26 29 28 31 28 23 12 41 49 38 28 35 35 34 30 30 35 22 12 14 4 7 3 4 9 19 11 17 3 34 36 18 42 48 41 38 32 32
23 24 21 21 23 23 21 20 19 18 16 16 19 19 23 22 21 16 23 32 33 27 13 9 18 23 26 33 29 32 27 22 19 14 22 16 10 7 2 5 5 21 7 46 17 11 50 58 33 36 38 34 31 32
23 24 27 25 23 23 21 20 18 18 16 15 16 20 17 19 22 27 12 10 14 29 13 11 7 18 29 26 28 27 24 21 17 21 14 11 11 23 4 4 12 12 15 12 36 40 13 51 33 37 35 33 32 33
19 18 25 29 27 23 21 20 18 15 17 15 15 18 21 27 31 36 36 29 8 18 12 8 7 13 25 23 33 32 24 22 20 17 15 12 23 11 6 13 11 23 38 28 29 34 17 35 34 37 35 31 35 34
26 24 21 25 28 26 23 21 17 15 17 17 17 19 20 24 27 32 25 19 30 19 9 11 16 4 16 26 24 15 24 12 17 12 20 12 4 4 15 6 17 20 10 40 31 29 35 36 36 34 29 33 32 36
25 27 26 21 26 26 23 22 17 15 14 16 22 11 12 15 23 14 16 12 17 17 17 16 25 8 15 29 16 14 21 10 8 17 13 14 17 9 12 18 12 1 21 27 30 26 27 38 34 27 22 23 32 32
27 25 27 25 21 25 21 21 19 16 16 12 10 10 6 14 13 11 9 15 19 11 19 32 36 7 9 6 10 5 6 10 10 9 18 15 17 20 23 4 8 1 8 12 12 19 20 21 35 33 27 20 22 28
27 27 23 25 21 24 21 19 20 20 17 12 10 11 13 14 10 8 8 10 14 12 17 38 31 23 8 2 4 3 4 9 9 16 8 19 14 53 51 40 22 8 8 10 12 15 19 17 14 16 28 24 25 32
25 25 25 23 22 22 20 17 19 21 23 17 11 8 7 12 11 12 17 12 10 12 17 30 14 11 10 3 2 4 5 7 8 5 10 11 28 31 45 29 19 10 11 12 15 16 16 15 14 11 16 18 21 37
24 25 24 20 23 20 16 15 7 10 8 6 8 6 9 11 12 8 11 7 1 10 35 30 24 9 6 12 4 4 4 5 6 9 15 14 29 34 31 22 14 10 8 15 20 21 21 23 24 22 18 28 29 30
24 23 22 22 22 16 16 13 10 16 8 8 11 8 14 11 17 8 27 9 1 7 13 18 9 9 7 6 4 2 5 7 10 12 5 29 28 29 25 19 12 7 9 13 17 22 24 23 25 26 32 26 26 28
26 23 21 21 17 14 14 13 11 9 8 8 11 10 16 17 13 13 6 9 7 15 18 12 5 5 6 4 9 6 7 6 4 13 33 24 25 21 17 16 10 10 5 10 14 15 16 26 26 28 30 34 30 30
23 12 22 18 19 21 20 12 11 10 10 8 8 12 20 22 12 10 4 4 8 19 7 6 8 7 8 2 6 6 2 8 16 22 29 35 27 21 19 18 15 12 8 6 9 9 8 8 12 20 22 24 35 35
11 24 22 25 19 11 11 11 7 8 11 15 11 18 12 13 12 8 9 5 10 13 9 5 5 6 4 5 3 14 28 27 32 26 22 22 21 18 20 17 16 14 11 6 6 12 7 7 9 12 14 18 23 28
20 27 23 18 17 4 7 11 10 7 15 13 13 12 5 7 9 5 7 9 10 9 2 4 4 4 2 11 16 18 22 26 27 27 18 16 17 15 12 12 13 13 11 11 13 15 16 19 18 15 20 33 35 39
19 17 13 6 4 7 7 8 10 11 7 3 4 5 3 4 8 5 6 12 15 6 5 5 3 4 20 20 18 10 22 25 28 22 16 18 16 14 9 4 13 9 8 10 12 14 16 17 19 17 25 30 39 44
11 2 3 4 9 11 9 7 6 8 8 8 9 2 7 11 7 3 9 21 14 2 7 6 21 19 6 10 8 8 7 2 5 11 10 14 16 17 13 12 3 2 5 7 7 9 11 15 18 20 30 38 34 49
3 3 3 8 7 4 7 6 8 12 4 11 1 3 7 13 14 15 5 9 6 14 14 20 20 10 6 8 11 12 15 14 11 13 10 11 13 19 18 17 14 10 8 6 5 10 18 17 22 26 33 31 27 47
9 7 5 5 5 5 10 7 5 6 3 6 4 5 2 6 6 3 7 6 19 19 19 20 21 22 28 38 41 34 31 30 27 28 26 22 21 19 14 15 18 15 12 11 12 7 15 13 20 23 43 54 49 52
8 4 7 7 4 6 6 4 7 7 7 5 4 2 6 6 9 8 2 11 14 27 30 30 32 32 31 30 30 32 31 35 38 40 39 36 33 31 28 24 19 18 16 9 16 19 13 11 18 20 30 50 63 65
4 8 8 7 6 7 4 7 6 4 7 13 10 6 6 12 7 10 8 18 40 42 43 36 32 30 31 30 29 29 28 36 41 45 44 46 41 35 30 29 26 20 20 11 20 23 13 18 19 25 43 56 63 61
6 11 9 14 12 8 8 8 10 10 7 10 10 14 15 7 8 7 9 33 43 51 47 45 42 37 29 19 20 18 19 23 31 37 38 46 49 44 39 35 33 28 27 21 23 25 18 24 28 32 48 52 53 50
3 2 5 3 6 9 7 6 8 12 9 11 9 12 8 10 10 8 35 45 53 47 40 29 19 18 17 13 6 10 16 26 27 26 24 34 35 36 36 37 34 27 32 20 30 23 21 30 31 41 63 58 48 46
4 3 3 4 9 19 21 16 12 13 10 17 8 11 7 11 5 20 29 52 50 49 44 33 13 7 4 11 3 14 23 31 24 28 25 33 34 35 39 28 24 22 26 32 34 30 29 30 55 68 61 54 40 41
5 4 3 17 23 15 18 15 13 14 21 18 7 6 7 13 32 39 55 56 57 67 53 44 31 26 23 19 17 19 27 34 38 44 48 46 48 42 43 34 33 33 39 32 26 27 48 69 57 44 42 42 41 44
26 20 29 27 19 10 15 14 16 22 27 27 14 12 22 39 54 53 53 71 82 71 64 55 37 33 40 43 37 32 32 42 46 49 54 54 50 44 39 43 39 35 35 40 46 49 75 60 58 46 37 42 44 35
12 23 27 23 14 18 20 22 26 24 23 25 23 17 19 22 38 61 58 56 64 77 79 74 62 65 58 51 55 58 49 42 39 42 50 53 49 45 46 41 37 39 48 55 65 83 59 50 40 35 44 46 41 35
11 14 21 18 14 13 13 12 10 11 17 24 26 29 27 19 23 48 66 59 59 67 69 64 70 73 84 85 59 55 58 54 52 44 41 44 45 44 45 48 52 56 59 67 68 69 44 33 39 39 35 36 35 34
25 23 18 13 8 7 7 8 7 7 11 9 16 19 18 17 17 37 48 49 53 48 53 59 62 58 69 77 70 75 69 61 48 46 53 53 54 64 69 72 72 69 77 67 44 40 37 36 37 35 37 37 31 33
Wind_Direction_500mb
249 248 247 244 241 243 248 250 252 253 252 258 247 237 243 245 249 252 256 260 248 266 270 273 273 278 286 283 300 313 319 212 235 219 226 234 227 219 236 230 210 173 36 226 222 213 213 173 120 155 219 95 95 96
246 248 239 238 241 247 254 251 250 251 255 247 252 251 244 245 247 253 258 267 264 251 265 286 275 264 261 268 302 310 293 296 325 302 233 286 268 243 242 218 222 180 166 233 289 244 145 174 169 123 146 139 139 119
243 236 229 239 238 247 249 253 252 251 259 250 251 254 244 242 244 242 252 270 281 281 287 268 262 261 251 255 248 245 267 297 317 336 312 303 287 27 262 269 215 207 213 201 217 123 131 115 106 116 186 140 131 122
239 240 235 232 239 234 246 247 247 251 261 260 246 250 245 242 235 244 253 257 259 274 278 293 290 242 244 254 247 240 261 288 306 304 291 281 316 309 60 298 316 21 187 193 236 154 124 138 151 163 180 128 129 138
239 234 236 230 230 234 243 247 247 254 264 255 246 239 239 244 234 248 255 255 256 238 294 299 299 275 255 228 236 241 248 277 291 305 298 302 14 355 57 53 350 3 6 269 148 131 121 126 163 164 142 132 137 141
238 232 231 227 230 234 239 243 252 253 263 253 241 239 243 219 235 254 270 245 230 237 275 292 286 232 210 219 227 231 242 263 264 294 315 278 134 24 160 101 136 325 206 41 38 329 153 132 178 126 128 133 136 132
243 239 230 228 232 235 239 245 251 247 255 259 255 239 254 231 231 230 247 313 184 209 245 259 266 217 211 199 208 215 227 239 255 272 239 277 320 226 142 111 160 186 254 185 47 69 25 117 115 116 122 124 130 131
238 241 232 228 229 235 241 241 244 247 251 268 261 248 246 248 242 243 255 266 224 266 253 266 262 232 196 187 195 197 199 216 227 257 252 249 265 325 11 134 158 0 176 151 127 124 162 82 102 118 119 130 128 132
238 237 241 232 224 231 232 230 237 255 248 257 271 269 245 230 238 240 255 231 221 242 279 269 264 204 212 218 193 216 200 202 221 218 240 277 266 232 19 311 169 134 304 113 119 114 116 124 117 114 129 134 139 136
237 236 232 235 223 219 224 225 237 262 236 264 280 200 215 214 218 258 195 210 208 221 231 255 272 258 271 207 177 196 200 215 225 212 230 213 247 212 267 34 95 104 105 114 127 126 126 128 125 132 138 136 146 144
230 229 226 224 222 214 218 225 240 232 245 222 231 219 175 179 193 212 222 204 201 220 221 228 238 230 263 279 215 27 263 208 218 216 210 201 219 182 161 94 282 127 112 106 118 139 136 136 143 148 159 166 153 156
227 220 218 215 216 208 215 227 240 242 203 215 235 218 194 188 202 225 209 208 215 218 214 204 208 193 212 39 299 345 273 315 215 181 209 233 228 182 187 187 185 208 174 162 148 130 120 122 103 118 147 156 165 165
214 215 212 209 208 206 214 236 254 215 219 231 220 242 177 199 215 226 203 208 199 206 154 138 180 150 156 123 264 277 245 235 302 267 216 246 196 186 157 165 152 192 212 212 201 191 184 169 167 179 160 173 158 164
193 194 193 196 192 197 217 239 237 167 220 218 222 213 229 207 226 223 293 314 353 192 170 168 149 155 144 190 186 239 279 282 246 214 224 142 121 125 141 150 156 178 213 221 218 208 205 201 191 201 200 196 185 179
172 177 181 183 182 201 200 207 223 207 229 243 223 239 223 272 263 160 231 173 278 95 97 108 117 152 151 184 187 310 220 242 247 208 83 129 134 133 130 136 147 172 211 211 202 191 189 194 200 209 210 197 179 182
163 164 172 180 182 190 190 166 192 216 232 246 244 273 326 301 307 322 33 135 146 131 115 99 176 170 161 180 179 211 221 210 326 104 107 106 107 114 136 151 118 115 162 172 179 178 190 194 193 189 197 208 198 192
149 158 176 169 158 153 173 180 199 226 233 244 251 261 243 259 270 295 331 57 168 167 158 187 194 152 127 156 206 184 305 114 88 96 105 124 124 124 132 130 130 123 129 169 160 161 156 110 133 164 165 192 205 190
135 144 157 154 152 170 192 219 253 249 245 246 278 292 261 276 263 244 208 157 172 178 187 215 178 180 188 205 127 139 128 129 124 122 128 134 125 116 116 114 113 111 110 116 164 185 159 161 122 152 181 185 168 180
143 143 137 149 146 230 224 215 229 274 248 251 236 267 238 177 174 246 193 180 185 194 249 255 228 203 87 63 76 109 146 138 128 125 141 143 137 131 118 114 111 106 103 79 119 139 145 147 142 152 180 182 174 155
130 126 128 144 229 267 251 215 217 262 308 97 316 344 338 146 141 155 152 167 183 195 243 224 113 74 106 112 104 101 93 125 134 144 173 192 185 182 175 138 109 105 109 100 103 122 141 137 131 134 157 166 164 157
124 166 104 227 257 246 280 307 275 288 357 351 319 36 129 98 89 145 195 187 184 67 360 359 101 98 56 61 56 40 92 70 171 182 180 190 188 192 187 205 182 150 134 121 89 109 131 159 143 142 155 153 157 159
108 7 232 242 264 277 273 281 281 319 327 256 269 180 169 163 188 202 250 229 158 46 64 51 55 46 334 325 313 310 275 303 277 264 251 186 222 178 190 197 202 209 180 170 167 36 129 135 139 150 137 162 140 143
25 15 283 270 318 310 282 345 338 296 312 320 15 336 344 36 59 348 250 86 82 44 20 2 341 315 295 285 279 268 255 251 245 234 235 230 223 223 219 196 197 212 204 176 180 141 163 140 140 156 165 157 159 156
34 354 336 328 295 287 325 309 326 323 276 248 280 315 55 359 307 257 238 67 26 349 338 328 321 310 298 285 273 266 252 240 233 225 219 219 216 214 212 210 207 209 206 193 175 143 151 152 142 161 168 169 162 162
356 357 324 307 331 315 340 4 324 296 349 16 349 12 12 350 351 28 27 348 337 336 334 327 322 317 305 291 278 260 243 231 226 224 218 212 211 208 207 205 205 205 207 213 170 157 169 173 167 163 160 166 163 160
38 30 20 4 359 348 341 329 7 1 349 9 22 358 0 29 30 27 345 326 323 330 332 329 324 316 307 290 276 246 211 213 215 217 216 209 203 198 196 195 194 194 193 189 193 183 182 176 169 168 168 161 166 158
67 44 29 330 306 331 339 333 11 29 30 23 2 5 30 13 12 343 315 342 341 358 6 5 347 340 343 341 273 244 198 192 201 204 197 188 186 186 188 188 189 195 189 178 193 198 186 169 172 175 159 150 142 135
40 34 34 47 68 41 27 29 31 23 12 353 3 31 34 1 313 315 335 7 14 22 33 53 63 48 6 22 265 202 183 176 173 172 165 161 163 159 162 169 170 175 169 180 183 164 154 165 154 143 141 144 151 153
18 341 76 92 63 56 33 31 33 30 14 14 28 38 349 330 360 16 24 25 25 34 45 48 61 78 66 69 96 112 149 163 161 150 142 147 152 158 149 147 152 149 155 149 142 142 138 138 138 136 137 137 141 145
48 61 64 56 57 53 38 59 71 61 56 47 50 37 26 33 35 35 30 26 27 27 31 50 70 79 65 79 97 101 124 140 142 136 133 135 141 139 142 146 149 149 149 142 148 146 144 145 147 149 143 142 147 147
78 78 78 77 70 81 90 83 80 71 43 38 37 35 32 29 37 34 29 26 25 30 40 48 72 63 79 87 87 102 110 118 126 127 128 130 133 142 151 155 155 154 148 150 142 153 154 146 140 149 148 147 143 138
88 77 85 90 98 104 87 77 68 54 41 36 28 31 45 35 29 19 21 27 33 30 38 49 62 64 69 73 79 86 100 113 115 112 123 129 131 132 137 138 134 132 140 145 144 138 137 131 140 136 130 131 139 141
100 102 110 97 79 88 107 108 93 86 57 47 12 14 41 47 43 20 24 30 38 36 33 46 59 62 70 77 71 73 92 98 102 110 109 108 115 117 115 114 119 126 130 126 128 128 130 141 139 137 140 143 140 143
Wind_Speed_850mb
26 25 25 26 27 28 28 26 26 27 27 24 25 29 27 28 27 27 25 27 29 32 52 51 46 45 44 33 9 40 24 35 35 20 26 24 26 33 39 40 34 14 4 26 27 20 15 19 21 22 11 18 29 45
27 27 27 26 25 25 25 26 28 26 25 26 22 24 31 29 26 27 28 25 28 37 42 50 44 52 54 39 30 15 24 59 23 4 19 11 14 9 12 30 26 23 22 25 16 17 63 51 25 35 34 32 26 45
21 22 27 22 23 21 21 20 23 23 21 23 26 25 27 27 29 31 27 32 24 24 47 52 53 50 48 52 50 33 29 22 36 26 14 6 8 8 6 23 31 45 24 8 11 27 33 45 47 39 7 36 36 41
22 22 24 25 21 22 18 17 17 19 18 19 22 22 24 23 29 31 27 27 26 17 16 17 16 23 27 30 39 47 48 50 46 36 22 10 4 9 3 10 12 14 27 34 21 32 49 44 45 37 38 39 40 36
22 20 19 23 24 22 20 18 18 17 17 18 19 19 20 23 26 29 28 31 28 23 12 41 49 38 28 35 35 34 30 30 35 22 12 14 4 7 3 4 9 19 11 17 3 34 36 18 42 48 41 38 32 32
23 24 21 21 23 23 21 20 19 18 16 16 19 19 23 22 21 16 23 32 33 27 13 9 18 23 26 33 29 32 27 22 19 14 22 16 10 7 2 5 5 21 7 46 17 11 50 58 33 36 38 34 31 32
23 24 27 25 23 23 21 20 18 18 16 15 16 20 17 19 22 27 12 10 14 29 13 11 7 18 29 26 28 27 24 21 17 21 14 11 11 23 4 4 12 12 15 12 36 40 13 51 33 37 35 33 32 33
19 18 25 29 27 23 21 20 18 15 17 15 15 18 21 27 31 36 36 29 8 18 12 8 7 13 25 23 33 32 24 22 20 17 15 12 23 11 6 13 11 23 38 28 29 34 17 35 34 37 35 31 35 34
26 24 21 25 28 26 23 21 17 15 17 17 17 19 20 24 27 32 25 19 30 19 9 11 16 4 16 26 24 15 24 12 17 12 20 12 4 4 15 6 17 20 10 40 31 29 35 36 36 34 29 33 32 36
25 27 26 21 26 26 23 22 17 15 14 16 22 11 12 15 23 14 16 12 17 17 17 16 25 8 15 29 16 14 21 10 8 17 13 14 17 9 12 18 12 1 21 27 30 26 27 38 34 27 22 23 32 32
27 25 27 25 21 25 21 21 19 16 16 12 10 10 6 14 13 11 9 15 19 11 19 32 36 7 9 6 10 5 6 10 10 9 18 15 17 20 23 4 8 1 8 12 12 19 20 21 35 33 27 20 22 28
27 27 23 25 21 24 21 19 20 20 17 12 10 11 13 14 10 8 8 10 14 12 17 38 31 23 8 2 4 3 4 9 9 16 8 19 14 53 51 40 22 8 8 10 12 15 19 17 14 16 28 24 25 32
25 25 25 23 22 22 20 17 19 21 23 17 11 8 7 12 11 12 17 12 10 12 17 30 14 11 10 3 2 4 5 7 8 5 10 11 28 31 45 29 19 10 11 12 15 16 16 15 14 11 16 18 21 37
24 25 24 20 23 20 16 15 7 10 8 6 8 6 9 11 12 8 11 7 1 10 35 30 24 9 6 12 4 4 4 5 6 9 15 14 29 34 31 22 14 10 8 15 20 21 21 23 24 22 18 28 29 30
24 23 22 22 22 16 16 13 10 16 8 8 11 8 14 11 17 8 27 9 1 7 13 18 9 9 7 6 4 2 5 7 10 12 5 29 28 29 25 19 12 7 9 13 17 22 24 23 25 26 32 26 26 28
26 23 21 21 17 14 14 13 11 9 8 8 11 10 16 17 13 13 6 9 7 15 18 12 5 5 6 4 9 6 7 6 4 13 33 24 25 21 17 16 10 10 5 10 14 15 16 26 26 28 30 34 30 30
23 12 22 18 19 21 20 12 11 10 10 8 8 12 20 22 12 10 4 4 8 19 7 6 8 7 8 2 6 6 2 8 16 22 29 35 27 21 19 18 15 12 8 6 9 9 8 8 12 20 22 24 35 35
11 24 22 25 19 11 11 11 7 8 11 15 11 18 12 13 12 8 9 5 10 13 9 5 5 6 4 5 3 14 28 27 32 26 22 22 21 18 20 17 16 14 11 6 6 12 7 7 9 12 14 18 23 28
20 27 23 18 17 4 7 11 10 7 15 13 13 12 5 7 9 5 7 9 10 9 2 4 4 4 2 11 16 18 22 26 27 27 18 16 17 15 12 12 13 13 11 11 13 15 16 19 18 15 20 33 35 39
19 17 13 6 4 7 7 8 10 11 7 3 4 5 3 4 8 5 6 12 15 6 5 5 3 4 20 20 18 10 22 25 28 22 16 18 16 14 9 4 13 9 8 10 12 14 16 17 19 17 25 30 39 44
11 2 3 4 9 11 9 7 6 8 8 8 9 2 7 11 7 3 9 21 14 2 7 6 21 19 6 10 8 8 7 2 5 11 10 14 16 17 13 12 3 2 5 7 7 9 11 15 18 20 30 38 34 49
3 3 3 8 7 4 7 6 8 12 4 11 1 3 7 13 14 15 5 9 6 14 14 20 20 10 6 8 11 12 15 14 11 13 10 11 13 19 18 17 14 10 8 6 5 10 18 17 22 26 33 31 27 47
9 7 5 5 5 5 10 7 5 6 3 6 4 5 2 6 6 3 7 6 19 19 19 20 21 22 28 38 41 34 31 30 27 28 26 22 21 19 14 15 18 15 12 11 12 7 15 13 20 23 43 54 49 52
8 4 7 7 4 6 6 4 7 7 7 5 4 2 6 6 9 8 2 11 14 27 30 30 32 32 31 30 30 32 31 35 38 40 39 36 33 31 28 24 19 18 16 9 16 19 13 11 18 20 30 50 63 65
4 8 8 7 6 7 4 7 6 4 7 13 10 6 6 12 7 10 8 18 40 42 43 36 32 30 31 30 29 29 28 36 41 45 44 46 41 35 30 29 26 20 20 11 20 23 13 18 19 25 43 56 63 61
6 11 9 14 12 8 8 8 10 10 7 10 10 14 15 7 8 7 9 33 43 51 47 45 42 37 29 19 20 18 19 23 31 37 38 46 49 44 39 35 33 28 27 21 23 25 18 24 28 32 48 52 53 50
3 2 5 3 6 9 7 6 8 12 9 11 9 12 8 10 10 8 35 45 53 47 40 29 19 18 17 13 6 10 16 26 27 26 24 34 35 36 36 37 34 27 32 20 30 23 21 30 31 41 63 58 48 46
4 3 3 4 9 19 21 16 12 13 10 17 8 11 7 11 5 20 29 52 50 49 44 33 13 7 4 11 3 14 23 31 24 28 25 33 34 35 39 28 24 22 26 32 34 30 29 30 55 68 61 54 40 41
5 4 3 17 23 15 18 15 13 14 21 18 7 6 7 13 32 39 55 56 57 67 53 44 31 26 23 19 17 19 27 34 38 44 48 46 48 42 43 34 33 33 39 32 26 27 48 69 57 44 42 42 41 44
26 20 29 27 19 10 15 14 16 22 27 27 14 12 22 39 54 53 53 71 82 71 64 55 37 33 40 43 37 32 32 42 46 49 54 54 50 44 39 43 39 35 35 40 46 49 75 60 58 46 37 42 44 35
12 23 27 23 14 18 20 22 26 24 23 25 23 17 19 22 38 61 58 56 64 77 79 74 62 65 58 51 55 58 49 42 39 42 50 53 49 45 46 41 37 39 48 55 65 83 59 50 40 35 44 46 41 35
11 14 21 18 14 13 13 12 10 11 17 24 26 29 27 19 23 48 66 59 59 67 69 64 70 73 84 85 59 55 58 54 52 44 41 44 45 44 45 48 52 56 59 67 68 69 44 33 39 39 35 36 35 34
25 23 18 13 8 7 7 8 7 7 11 9 16 19 18 17 17 37 48 49 53 48 53 59 62 58 69 77 70 75 69 61 48 46 53 53 54 64 69 72 72 69 77 67 44 40 37 36 37 35 37 37 31 33
Wind_Direction_850mb
249 248 247 244 241 243 248 250 252 253 252 258 247 237 243 245 249 252 256 260 248 266 270 273 273 278 286 283 300 313 319 212 235 219 226 234 227 219 236 230 210 173 36 226 222 213 213 173 120 155 219 95 95 96
246 248 239 238 241 247 254 251 250 251 255 247 252 251 244 245 247 253 258 267 264 251 265 286 275 264 261 268 302 310 293 296 325 302 233 286 268 243 242 218 222 180 166 233 289 244 145 174 169 123 146 139 139 119
243 236 229 239 238 247 249 253 252 251 259 250 251 254 244 242 244 242 252 270 281 281 287 268 262 261 251 255 248 245 267 297 317 336 312 303 287 27 262 269 215 207 213 201 217 123 131 115 106 116 186 140 131 122
239 240 235 232 239 234 246 247 247 251 261 260 246 250 245 242 235 244 253 257 259 274 278 293 290 242 244 254 247 240 261 288 306 304 291 281 316 309 60 298 316 21 187 193 236 154 124 138 151 163 180 128 129 138
239 234 236 230 230 234 243 247 247 254 264 255 246 239 239 244 234 248 255 255 256 238 294 299 299 275 255 228 236 241 248 277 291 305 298 302 14 355 57 53 350 3 6 269 148 131 121 126 163 164 142 132 137 141
238 232 231 227 230 234 239 243 252 253 263 253 241 239 243 219 235 254 270 245 230 237 275 292 286 232 210 219 227 231 242 263 264 294 315 278 134 24 160 101 136 325 206 41 38 329 153 132 178 126 128 133 136 132
243 239 230 228 232 235 239 245 251 247 255 259 255 239 254 231 231 230 247 313 184 209 245 259 266 217 211 199 208 215 227 239 255 272 239 277 320 226 142 111 160 186 254 185 47 69 25 117 115 116 122 124 130 131
238 241 232 228 229 235 241 241 244 247 251 268 261 248 246 248 242 243 255 266 224 266 253 266 262 232 196 187 195 197 199 216 227 257 252 249 265 325 11 134 158 0 176 151 127 124 162 82 102 118 119 130 128 132
238 237 241 232 224 231 232 230 237 255 248 257 271 269 245 230 238 240 255 231 221 242 279 269 264 204 212 218 193 216 200 202 221 218 240 277 266 232 19 311 169 134 304 113 119 114 116 124 117 114 129 134 139 136
237 236 232 235 223 219 224 225 237 262 236 264 280 200 215 214 218 258 195 210 208 221 231 255 272 258 271 207 177 196 200 215 225 212 230 213 247 212 267 34 95 104 105 114 127 126 126 128 125 132 138 136 146 144
230 229 226 224 222 214 218 225 240 232 245 222 231 219 175 179 193 212 222 204 201 220 221 228 238 230 263 279 215 27 263 208 218 216 210 201 219 182 161 94 282 127 112 106 118 139 136 136 143 148 159 166 153 156
227 220 218 215 216 208 215 227 240 242 203 215 235 218 194 188 202 225 209 208 215 218 214 204 208 193 212 39 299 345 273 315 215 181 209 233 228 182 187 187 185 208 174 162 148 130 120 122 103 118 147 156 165 165
214 215 212 209 208 206 214 236 254 215 219 231 220 242 177 199 215 226 203 208 199 206 154 138 180 150 156 123 264 277 245 235 302 267 216 246 196 186 157 165 152 192 212 212 201 191 184 169 167 179 160 173 158 164
193 194 193 196 192 197 217 239 237 167 220 218 222 213 229 207 226 223 293 314 353 192 170 168 149 155 144 190 186 239 279 282 246 214 224 142 121 125 141 150 156 178 213 221 218 208 205 201 191 201 200 196 185 179
172 177 181 183 182 201 200 207 223 207 229 243 223 239 223 272 263 160 231 173 278 95 97 108 117 152 151 184 187 310 220 242 247 208 83 129 134 133 130 136 147 172 211 211 202 191 189 194 200 209 210 197 179 182
163 164 172 180 182 190 190 166 192 216 232 246 244 273 326 301 307 322 33 135 146 131 115 99 176 170 161 180 179 211 221 210 326 104 107 106 107 114 136 151 118 115 162 172 179 178 190 194 193 189 197 208 198 192
149 158 176 169 158 153 173 180 199 226 233 244 251 261 243 259 270 295 331 57 168 167 158 187 194 152 127 156 206 184 305 114 88 96 105 124 124 124 132 130 130 123 129 169 160 161 156 110 133 164 165 192 205 190
135 144 157 154 152 170 192 219 253 249 245 246 278 292 261 276 263 244 208 157 172 178 187 215 178 180 188 205 127 139 128 129 124 122 128 134 125 116 116 114 113 111 110 116 164 185 159 161 122 152 181 185 168 180
143 143 137 149 146 230 224 215 229 274 248 251 236 267 238 177 174 246 193 180 185 194 249 255 228 203 87 63 76 109 146 138 128 125 141 143 137 131 118 114 111 106 103 79 119 139 145 147 142 152 180 182 174 155
130 126 128 144 229 267 251 215 217 262 308 97 316 344 338 146 141 155 152 167 183 195 243 224 113 74 106 112 104 101 93 125 134 144 173 192 185 182 175 138 109 105 109 100 103 122 141 137 131 134 157 166 164 157
124 166 104 227 257 246 280 307 275 288 357 351 319 36 129 98 89 145 195 187 184 67 360 359 101 98 56 61 56 40 92 70 171 182 180 190 188 192 187 205 182 150 134 121 89 109 131 159 143 142 155 153 157 159
108 7 232 242 264 277 273 281 281 319 327 256 269 180 169 163 188 202 250 229 158 46 64 51 55 46 334 325 313 310 275 303 277 264 251 186 222 178 190 197 202 209 180 170 167 36 129 135 139 150 137 162 140 143
25 15 283 270 318 310 282 345 338 296 312 320 15 336 344 36 59 348 250 86 82 44 20 2 341 315 295 285 279 268 255 251 245 234 235 230 223 223 219 196 197 212 204 176 180 141 163 140 140 156 165 157 159 156
34 354 336 328 295 287 325 309 326 323 276 248 280 315 55 359 307 257 238 67 26 349 338 328 321 310 298 285 273 266 252 240 233 225 219 219 216 214 212 210 207 209 206 193 175 143 151 152 142 161 168 169 162 162
356 357 324 307 331 315 340 4 324 296 349 16 349 12 12 350 351 28 27 348 337 336 334 327 322 317 305 291 278 260 243 231 226 224 218 212 211 208 207 205 205 205 207 213 170 157 169 173 167 163 160 166 163 160
38 30 20 4 359 348 341 329 7 1 349 9 22 358 0 29 30 27 345 326 323 330 332 329 324 316 307 290 276 246 211 213 215 217 216 209 203 198 196 195 194 194 193 189 193 183 182 176 169 168 168 161 166 158
67 44 29 330 306 331 339 333 11 29 30 23 2 5 30 13 12 343 315 342 341 358 6 5 347 340 343 341 273 244 198 192 201 204 197 188 186 186 188 188 189 195 189 178 193 198 186 169 172 175 159 150 142 135
40 34 34 47 68 41 27 29 31 23 12 353 3 31 34 1 313 315 335 7 14 22 33 53 63 48 6 22 265 202 183 176 173 172 165 161 163 159 162 169 170 175 169 180 183 164 154 165 154 143 141 144 151 153
18 341 76 92 63 56 33 31 33 30 14 14 28 38 349 330 360 16 24 25 25 34 45 48 61 78 66 69 96 112 149 163 161 150 142 147 152 158 149 147 152 149 155 149 142 142 138 138 138 136 137 137 141 145
48 61 64 56 57 53 38 59 71 61 56 47 50 37 26 33 35 35 30 26 27 27 31 50 70 79 65 79 97 101 124 140 142 136 133 135 141 139 142 146 149 149 149 142 148 146 144 145 147 149 143 142 147 147
78 78 78 77 70 81 90 83 80 71 43 38 37 35 32 29 37 34 29 26 25 30 40 48 72 63 79 87 87 102 110 118 126 127 128 130 133 142 151 155 155 154 148 150 142 153 154 146 140 149 148 147 143 138
88 77 85 90 98 104 87 77 68 54 41 36 28 31 45 35 29 19 21 27 33 30 38 49 62 64 69 73 79 86 100 113 115 112 123 129 131 132 137 138 134 132 140 145 144 138 137 131 140 136 130 131 139 141
100 102 110 97 79 88 107 108 93 86 57 47 12 14 41 47 43 20 24 30 38 36 33 46 59 62 70 77 71 73 92 98 102 110 109 108 115 117 115 114 119 126 130 126 128 128 130 141 139 137 140 143 140 143